Total_Precipitation_Accumulation
1.62 1.61 1.60 1.53 1.53 1.51 1.60 1.61 1.55 1.31 1.04 0.77 0.64 0.56 0.67 0.74 0.97 0.95 0.81 0.84 0.74 0.59 0.49 0.43 0.41 0.37 0.40 0.47 0.58 0.71 0.85 0.89 0.84 0.76 0.74 0.75 0.74 0.77
1.39 1.43 1.45 1.46 1.52 1.53 1.57 1.63 1.59 1.43 1.24 1.00 0.81 0.69 0.73 0.71 0.83 0.78 0.82 1.00 0.85 0.67 0.53 0.45 0.39 0.36 0.33 0.31 0.32 0.34 0.39 0.45 0.48 0.50 0.51 0.55 0.62 0.69
1.04 1.07 1.14 1.20 1.29 1.34 1.45 1.52 1.55 1.48 1.22 1.08 0.93 0.81 0.83 0.83 0.84 0.80 0.87 0.90 0.82 0.75 0.60 0.48 0.43 0.37 0.34 0.33 0.29 0.28 0.29 0.32 0.35 0.37 0.40 0.43 0.43 0.44
0.78 0.85 0.90 0.97 1.06 1.14 1.21 1.30 1.42 1.45 1.35 1.19 1.05 0.91 0.81 0.82 0.97 1.02 1.01 0.94 0.92 1.00 0.88 0.70 0.61 0.51 0.41 0.35 0.32 0.29 0.28 0.29 0.31 0.33 0.33 0.37 0.43 0.43
0.52 0.56 0.65 0.74 0.85 0.93 0.99 1.07 1.20 1.26 1.34 1.24 1.16 1.07 0.91 0.83 0.95 0.97 1.04 1.21 1.13 1.19 1.29 1.08 0.84 0.69 0.57 0.49 0.41 0.36 0.33 0.31 0.28 0.30 0.33 0.36 0.39 0.42
0.49 0.50 0.53 0.54 0.60 0.70 0.84 1.02 1.17 1.30 1.35 1.28 1.23 1.18 1.10 0.99 1.03 1.09 1.17 1.26 1.32 1.20 1.21 1.17 1.08 0.97 0.81 0.68 0.61 0.53 0.48 0.44 0.42 0.39 0.37 0.36 0.35 0.36
0.47 0.51 0.52 0.48 0.47 0.51 0.52 0.70 0.91 1.13 1.26 1.32 1.32 1.33 1.26 1.18 1.06 1.11 1.22 1.36 1.48 1.48 1.37 1.23 1.17 1.03 0.93 0.83 0.74 0.68 0.63 0.59 0.55 0.50 0.46 0.45 0.43 0.40
0.51 0.54 0.52 0.46 0.50 0.48 0.47 0.49 0.59 0.73 0.90 1.04 1.12 1.17 1.22 1.29 1.34 1.34 1.36 1.43 1.51 1.53 1.39 1.41 1.34 1.20 1.03 0.86 0.84 0.83 0.80 0.74 0.66 0.58 0.51 0.46 0.44 0.46
0.47 0.61 0.67 0.60 0.59 0.62 0.63 0.57 0.50 0.47 0.60 0.80 0.92 0.97 1.05 1.15 1.35 1.40 1.42 1.42 1.33 1.38 1.27 1.33 1.29 1.17 1.06 0.99 0.97 0.89 0.87 0.80 0.72 0.65 0.60 0.55 0.51 0.50
0.42 0.54 0.79 0.83 0.73 0.69 0.73 0.82 0.74 0.57 0.55 0.59 0.73 0.84 0.89 1.03 1.34 1.56 1.52 1.32 1.24 1.29 1.21 1.22 1.19 1.09 1.02 0.99 1.00 0.90 0.85 0.78 0.72 0.67 0.62 0.60 0.59 0.58
0.36 0.48 0.64 0.79 0.73 0.69 0.69 0.76 0.80 0.70 0.63 0.62 0.57 0.64 0.76 0.92 1.17 1.41 1.49 1.43 1.29 1.25 1.11 1.03 1.06 1.08 1.11 1.06 1.00 0.96 0.87 0.83 0.81 0.77 0.71 0.67 0.67 0.72
0.22 0.38 0.54 0.54 0.50 0.55 0.67 0.78 0.87 0.72 0.61 0.69 0.68 0.70 0.71 0.88 1.20 1.38 1.45 1.40 1.28 1.25 1.16 1.06 1.05 1.08 1.25 1.23 1.07 1.00 0.94 0.93 0.90 0.86 0.83 0.80 0.84 0.84
0.15 0.29 0.38 0.35 0.34 0.42 0.53 0.67 0.80 0.66 0.68 0.82 0.86 0.83 0.89 0.94 1.06 1.18 1.34 1.42 1.31 1.15 1.09 1.17 1.20 1.12 1.08 1.10 1.11 1.05 0.97 0.91 0.89 0.86 0.86 0.85 0.87 0.85
0.16 0.23 0.26 0.22 0.23 0.27 0.33 0.46 0.57 0.64 0.73 0.85 0.93 0.90 0.85 0.90 0.96 0.99 1.09 1.18 1.14 1.08 1.01 0.94 0.99 0.93 0.86 0.80 0.81 0.90 0.94 0.92 0.88 0.86 0.84 0.94 0.90 0.90
0.14 0.18 0.19 0.20 0.22 0.25 0.28 0.35 0.49 0.68 0.85 0.86 0.80 0.77 0.79 0.84 0.84 0.94 1.02 1.07 1.07 1.05 0.95 0.81 0.78 0.80 0.76 0.70 0.65 0.68 0.79 0.86 0.83 0.79 0.77 0.79 0.79 0.83
0.15 0.15 0.15 0.20 0.23 0.24 0.29 0.40 0.56 0.75 0.83 0.75 0.71 0.61 0.63 0.78 0.82 0.82 0.86 0.89 0.94 0.98 0.89 0.84 0.79 0.74 0.72 0.68 0.64 0.61 0.60 0.65 0.72 0.76 0.75 0.72 0.72 0.73
0.13 0.19 0.24 0.30 0.35 0.42 0.51 0.58 0.59 0.63 0.69 0.62 0.66 0.60 0.57 0.65 0.69 0.68 0.69 0.66 0.68 0.69 0.70 0.72 0.74 0.71 0.65 0.65 0.65 0.61 0.60 0.56 0.56 0.65 0.72 0.73 0.70 0.71
0.17 0.25 0.33 0.41 0.47 0.53 0.57 0.58 0.57 0.58 0.62 0.59 0.57 0.57 0.52 0.52 0.54 0.55 0.57 0.59 0.63 0.62 0.55 0.51 0.53 0.58 0.61 0.65 0.63 0.57 0.58 0.60 0.62 0.64 0.63 0.61 0.59 0.61
0.15 0.26 0.46 0.50 0.48 0.53 0.56 0.54 0.45 0.39 0.39 0.41 0.39 0.38 0.37 0.38 0.41 0.43 0.43 0.48 0.51 0.49 0.50 0.50 0.48 0.49 0.50 0.48 0.46 0.43 0.50 0.54 0.55 0.59 0.60 0.57 0.53 0.53
0.12 0.18 0.31 0.35 0.38 0.43 0.42 0.38 0.31 0.24 0.23 0.23 0.22 0.23 0.24 0.26 0.28 0.31 0.31 0.31 0.36 0.38 0.39 0.42 0.41 0.41 0.43 0.43 0.40 0.36 0.35 0.40 0.42 0.44 0.47 0.51 0.54 0.64
0.13 0.17 0.21 0.24 0.25 0.24 0.24 0.23 0.21 0.20 0.18 0.16 0.17 0.19 0.19 0.19 0.18 0.19 0.23 0.26 0.26 0.25 0.29 0.31 0.32 0.36 0.36 0.39 0.39 0.33 0.30 0.35 0.37 0.35 0.39 0.46 0.47 0.46
0.12 0.13 0.15 0.15 0.16 0.16 0.17 0.19 0.19 0.21 0.20 0.18 0.16 0.16 0.16 0.15 0.14 0.14 0.15 0.16 0.18 0.21 0.22 0.25 0.28 0.29 0.29 0.33 0.33 0.30 0.29 0.31 0.35 0.43 0.41 0.39 0.35 0.33
0.14 0.13 0.13 0.14 0.15 0.17 0.19 0.20 0.19 0.21 0.22 0.20 0.18 0.17 0.16 0.14 0.13 0.13 0.14 0.14 0.15 0.17 0.18 0.21 0.24 0.25 0.25 0.25 0.26 0.27 0.28 0.29 0.31 0.34 0.35 0.37 0.33 0.30